Regional Weather Roundup
Issued by NWS

Home | Current Version | Previous Version | Text Only | Print | Product List | Glossary On
Versions: 1 2 3 4 5 6 7 8 9 10 11 12 13 14 15 16 17 18 19 20 21 22 23 24 25 26 27 28 29 30 31 32 33 34 35 36 37 38 39 40 41 42 43 44 45 46 47 48 49 50
000
ASUS45 KBOU 261110
RWRCO

WEATHER ROUNDUP FOR COLORADO
NATIONAL WEATHER SERVICE DENVER/BOULDER CO
500 AM MDT SAT MAY 26 2018

NOTE: "FAIR" INDICATES FEW OR NO CLOUDS BELOW 12000 FEET WITH NO
SIGNIFICANT WEATHER AND/OR OBSTRUCTIONS TO VISIBILITY.

COZ001>005-013-030-031-261200-
...NORTHWEST COLORADO...

CITY           SKY/WX    TMP DP  RH WIND       PRES   REMARKS
CRAIG          FAIR      34  28  79 SW5       30.02S WCI  30
HAYDEN         FAIR      46  31  55 E15       30.06S
MEEKER         FAIR      39  25  57 VRB3      30.04R
RANGELY        FAIR      43  27  53 CALM      29.94R
RABBIT EARS PA FAIR      50   9  18 SW7       30.32S
STEAMBOAT SPGS FAIR      39  33  78 CALM      30.09R
WALDEN         FAIR      36  28  75 SE9       30.18R
$$

COZ006>008-011-261200-
...WEST CENTRAL VALLEYS...

CITY           SKY/WX    TMP DP  RH WIND       PRES   REMARKS
GRAND JUNCTION FAIR      60  17  18 E13       29.92R
MONTROSE       FAIR      53  17  24 SE8       30.05R
EAGLE          FAIR      41  20  43 E3        30.13R
RIFLE          FAIR      46  19  34 S3        30.01R
DELTA          FAIR      55  15  20 NE8       30.01R
NUCLA          FAIR      63   5  10 SE10      30.10R
$$

COZ017>023-064>068-261200-
...SOUTHWEST COLORADO...

CITY           SKY/WX    TMP DP  RH WIND       PRES   REMARKS
DURANGO        FAIR      36  17  46 N5        30.14S
CORTEZ         FAIR      44  16  32 E9        30.09R
PAGOSA SPRINGS FAIR      37   6  28 CALM      30.22R
TELLURIDE      FAIR      51   9  18 SE5       30.28S
WOLF CREEK PAS FAIR      37   3  23 SW18G28   30.46F
$$

COZ009-010-012-014-032>034-037-058>063-261200-
...CENTRAL COLORADO...

CITY           SKY/WX    TMP DP  RH WIND       PRES   REMARKS
ASPEN          FAIR      43  22  43 SW9       30.15R
BUENA VISTA    FAIR      45  22  40 NW8       30.19S
COPPER MTN     FAIR      52   5  15 S12       30.44S
BERTHOUD PASS  FAIR      43  32  65 W10       30.47F
COTTONWOOD PAS FAIR      59  12  15 CALM      30.30S
GUNNISON       FAIR      35  20  54 CALM      30.22R
GRANBY         FAIR      35  29  76 NE6       30.22S WCI  30
KREMMLING      FAIR      41  32  70 CALM      30.19R
LEADVILLE      FAIR      34  19  54 NE3       30.29S
MONARCH PASS   FAIR      45   0  15 MISG      30.55S
SALIDA         FAIR      47  24  40 CALM      30.25R
SUNLIGHT       FAIR      43   9  24 SW16G26   30.35S
WILKERSON PASS FAIR      50  18  27 SW8       30.42S
$$

COZ069>075-261200-
...SAN LUIS VALLEY/SANGRE DE CRISTO MOUNTAINS...

CITY           SKY/WX    TMP DP  RH WIND       PRES   REMARKS
ALAMOSA        FAIR      35  25  66 SE12      30.17R WCI  27
DEL NORTE      FAIR      48   9  20 W18       30.20S
LA VETA PASS   FAIR      50   9  18 SW21G26   30.44S
SAGUACHE       NOT AVBL
$$

COZ035-036-038>040-261200-
...NORTHERN COLORADO FRONT RANGE...

CITY           SKY/WX    TMP DP  RH WIND       PRES   REMARKS
DENVER INTL AP FAIR      58  46  64 S12       29.95S
AURORA         NOT AVBL
FRONT RANGE AP FAIR      58  48  68 S13       29.97S
ERIE MUNI ARPT FAIR      48  44  84 S3        29.99S
BOULDER MUN AP FAIR      55  41  58 CALM      29.95R
CENTENNIAL     FAIR      58  47  66 S7        29.98S
BROOMFIELD     FAIR      61  36  39 NE5       29.97R
FORT COLLINS   FAIR      52  44  74 N6        29.95R
LONGMONT       FAIR      52  43  72 CALM      29.96S
$$

COZ041-046-047-076>085-087-088-261200-
...PIKES PEAK/PALMER DIVIDE AND SOUTHERN FOOTHILLS...

CITY           SKY/WX    TMP DP  RH WIND       PRES   REMARKS
COLO. SPRINGS  FAIR      53  45  74 NE12      30.04S
A. F. ACADEMY  FAIR      47  42  83 N9        30.05S
SCHRIEVER AFB  NOT AVBL
CHEYENNE MTN   FAIR      59  41  51 NW3       30.03R
ELLICOTT         N/A    N/A N/A N/A E5        30.02S
FALCON         FAIR      52  43  71 N3        30.09S
FORT CARSON    NOT AVBL
LIMON          FAIR      46  44  93 SE5       29.99S
MONUMENT HILL  FAIR      52  43  71 S12       30.09S
CANON CITY     CLEAR     61  41  48 W10       29.99R
WALSENBURG     FAIR      61  12  15 NW3       30.02S
TRINIDAD       FAIR      58  29  33 VRB6      30.01R
$$

COZ042>045-048>051-090-091-261200-
...NORTHEAST COLORADO...

CITY           SKY/WX    TMP DP  RH WIND       PRES   REMARKS
GREELEY ARPT   FAIR      52  47  83 W7        29.93R
AKRON          FAIR      65  54  67 S14       29.93S
BURLINGTON     FAIR      65  63  93 S15       29.93S
WRAY           FAIR      54  50  87 CALM      29.90S
YUMA           FAIR      55  52  88 SW6       29.91S
STERLING       FAIR      54  50  87 CALM      29.90S
HOLYOKE        FAIR      59  52  77 SW5       29.90F
FORT MORGAN    FAIR      58  46  63 W3        29.94R
$$

COZ086-089-092>099-261200-
...SOUTHEAST COLORADO...

CITY           SKY/WX    TMP DP  RH WIND       PRES   REMARKS
PUEBLO         FAIR      57  45  64 N9        29.93R
LA JUNTA       FAIR      62  52  69 E7        29.91R
LAMAR          FAIR      65  60  84 SE5       29.88R
SPRINGFIELD      N/A     53  53 100 SW7       29.94F
$$



USA.gov is the U.S. government's official web portal to all federal, state and local government web resources and services.